Temperature
18 18 18 18 18 18 18 18 17 17 17 17 17 17 17 17 17 17 17 17 17 17 17 17 17 17 17 17 16 16 16 16 16 16 16 16 16 16 16 16 16 16 15
18 18 18 18 18 17 17 17 17 17 17 17 17 17 17 17 17 17 17 17 17 17 17 17 17 17 17 17 16 16 16 16 16 16 16 16 16 16 16 16 16 16 15
18 18 18 18 18 18 17 17 17 18 17 17 17 17 17 17 17 17 17 17 17 17 17 17 17 17 16 16 16 16 16 16 16 16 16 16 16 16 16 16 16 16 15
18 18 18 18 18 17 18 18 18 18 17 17 17 17 17 17 17 17 17 17 17 17 17 17 16 16 16 16 16 16 16 16 16 16 16 16 16 16 15 15 15 15 15
18 18 18 18 18 18 17 17 18 18 17 17 17 17 17 17 17 17 17 17 17 17 17 17 16 16 16 16 16 16 16 16 16 16 16 15 15 15 15 15 15 15 15
18 18 18 18 18 18 18 18 17 17 17 17 17 17 17 17 17 17 17 17 17 17 17 16 16 16 16 16 16 16 16 16 16 15 15 15 15 15 15 15 15 15 15
18 18 18 18 18 18 18 18 18 17 17 17 17 17 17 17 17 17 17 16 16 16 16 16 16 16 16 16 16 15 15 15 15 15 15 15 15 15 15 15 15 15 15
18 18 18 18 18 18 18 18 18 18 17 17 17 17 16 16 17 17 16 16 16 16 16 16 16 16 16 16 15 15 15 15 15 15 15 15 15 15 15 15 15 14 14
18 18 18 18 18 18 18 18 18 18 17 17 17 17 16 16 16 16 16 16 16 16 16 16 16 16 15 15 15 15 15 15 15 15 15 15 15 14 14 14 14 14 14
18 18 18 18 18 18 18 18 18 17 17 17 17 17 17 17 16 16 16 16 16 16 16 15 15 15 15 15 15 15 15 15 15 15 15 14 14 14 14 14 14 14 14
18 18 18 18 18 18 18 18 17 17 17 17 17 17 17 17 16 16 15 15 15 15 15 15 15 15 15 15 15 15 15 15 14 14 14 14 14 14 14 14 14 14 13
18 18 18 18 18 18 18 18 17 17 17 17 17 17 17 16 16 16 16 15 15 15 15 15 15 15 15 14 14 14 14 14 14 14 14 14 14 14 13 13 13 13 13
18 18 18 18 18 18 18 17 17 17 17 17 17 17 17 16 16 16 16 15 15 14 14 14 14 14 14 14 14 14 14 14 14 14 14 13 13 13 13 13 13 13 12
18 18 18 18 18 17 17 17 17 17 17 17 17 17 16 16 16 16 16 15 15 14 14 14 14 14 14 14 14 14 14 14 13 13 13 13 13 13 13 12 12 12 12
18 18 18 17 17 17 17 17 17 17 17 17 17 16 16 16 16 16 16 16 15 14 13 14 13 13 13 13 13 13 13 13 13 13 13 12 12 12 12 12 12 12 12
17 17 17 17 17 17 17 17 17 16 16 16 16 16 16 16 16 16 15 15 15 15 14 13 13 13 13 13 13 13 13 13 13 12 12 12 12 12 12 12 12 11 11
17 17 17 17 17 17 16 16 16 16 16 16 16 16 16 16 15 15 15 15 15 14 14 13 13 13 13 13 12 12 12 12 12 12 12 12 12 11 11 11 11 11 11
17 17 17 16 16 16 16 16 16 16 16 16 16 16 15 15 15 15 15 15 14 14 14 13 13 12 12 12 12 12 12 12 12 12 12 11 11 11 11 11 10 10 10
17 16 16 16 16 16 16 16 16 16 16 15 15 15 15 15 15 15 15 14 14 14 13 13 13 12 12 12 12 12 11 11 11 11 11 11 11 10 10 10 10 10 10
16 16 16 16 16 16 15 15 15 15 15 15 15 15 15 15 14 14 14 14 13 13 13 13 12 12 12 12 11 11 11 11 11 11 11 10 10 10 10 10 10 9 9
16 16 16 16 16 15 15 15 15 15 15 15 14 14 14 14 14 14 14 13 13 13 13 13 12 12 12 11 11 11 11 11 10 10 10 10 10 10 10 9 9 9 9
16 16 16 15 15 15 15 15 15 15 15 14 14 14 14 13 13 13 13 13 13 13 13 12 12 12 11 11 11 11 11 10 10 10 10 10 9 9 9 9 9 9 8
16 16 15 15 15 15 14 14 14 14 14 14 14 14 13 13 13 13 13 12 12 12 12 12 12 11 11 11 11 11 10 10 10 10 9 9 9 9 9 9 9 8 8
16 16 15 15 15 14 14 14 14 14 14 14 13 13 13 13 13 13 12 12 12 12 12 11 11 11 11 11 11 10 10 10 10 9 9 9 9 9 9 9 8 8 8
15 15 15 15 15 14 14 14 14 14 13 13 13 13 13 12 12 12 12 12 12 11 11 11 11 11 11 11 10 10 10 10 9 9 9 9 9 8 8 8 8 8 8
15 15 15 14 14 14 14 13 13 13 13 13 13 12 12 12 12 12 12 12 11 11 11 11 11 10 10 10 10 10 10 10 9 9 9 9 8 8 8 8 8 8 8
Wind_Speed
0 1 1 1 1 1 1 1 2 2 2 1 1 2 2 3 4 4 5 7 8 8 8 8 8 8 8 8 8 8 8 7 7 8 8 8 8 8 8 8 9 9 9
2 1 1 1 2 1 1 0 1 1 1 0 0 1 1 2 3 4 4 4 6 7 8 8 8 8 8 8 9 9 9 8 8 8 8 8 8 8 8 9 9 10 10
5 3 1 1 2 1 1 1 1 1 0 1 1 1 1 2 2 3 3 3 4 6 6 6 6 6 7 7 8 9 9 9 9 9 8 8 7 7 8 9 9 9 9
5 4 2 2 2 1 0 0 0 1 1 1 1 1 1 1 2 2 3 3 2 3 4 5 6 5 6 7 8 8 8 8 9 9 9 8 8 8 8 9 9 9 10
5 4 3 3 2 1 1 1 0 1 1 1 1 1 1 0 1 2 2 2 2 2 3 4 5 5 6 6 6 6 7 8 8 8 8 8 8 8 8 8 8 8 9
5 4 3 3 2 2 1 1 1 1 1 1 1 2 1 1 1 1 1 1 1 2 2 2 3 4 4 4 4 5 6 6 6 7 7 7 8 8 8 8 8 8 8
4 4 3 2 2 2 2 2 2 2 1 2 2 1 2 2 1 0 0 1 1 1 1 1 2 2 3 4 4 4 4 5 5 6 6 7 8 8 8 8 7 7 7
4 4 4 3 3 2 2 2 2 2 1 2 2 1 1 2 2 1 1 1 0 1 0 1 2 2 2 2 2 3 4 4 4 4 3 5 6 6 6 6 5 6 7
3 3 3 3 3 3 3 3 3 3 2 2 2 3 2 2 0 2 2 2 1 1 1 1 1 1 2 2 2 3 4 4 5 4 4 4 4 4 6 6 7 7 7
2 2 2 2 2 2 3 3 3 3 3 3 2 2 2 3 2 0 1 2 2 2 1 2 2 2 1 1 1 1 1 2 3 3 2 2 3 4 5 5 5 5 4
2 2 2 2 2 2 3 3 3 3 3 3 3 2 2 1 2 2 1 0 1 2 1 2 2 2 2 2 1 2 2 2 1 0 1 2 2 2 2 2 2 2 2
2 2 2 2 2 2 2 2 2 3 3 2 2 2 2 2 3 3 3 2 1 1 2 2 2 2 2 3 3 4 4 5 4 4 4 4 5 4 4 3 3 2 2
2 2 2 1 1 1 2 1 1 2 2 2 2 2 2 3 2 3 3 2 1 0 1 1 1 2 2 3 3 4 5 6 6 6 6 6 7 7 7 7 7 6 6
2 1 1 1 1 1 0 1 1 1 1 2 2 2 2 2 3 3 3 4 2 0 1 1 1 2 2 3 3 4 5 7 7 8 8 8 8 8 8 8 8 7 7
0 1 1 1 1 1 1 1 1 0 1 1 1 1 1 2 2 3 3 4 4 3 1 1 0 1 3 3 4 5 6 7 8 8 8 8 8 9 9 10 10 9 9
1 2 2 1 1 1 2 2 1 1 1 1 0 1 1 1 1 2 2 2 2 4 2 0 0 1 3 4 6 6 6 7 8 8 8 8 8 9 9 10 10 11 11
2 2 2 2 2 2 1 2 1 1 1 1 1 1 0 1 2 2 2 3 2 3 4 1 1 1 2 4 4 5 6 6 6 8 8 8 8 9 9 10 10 10 11
2 2 2 3 2 2 2 2 1 1 1 0 0 1 1 1 2 2 3 3 3 2 4 4 1 1 2 2 3 4 5 6 6 8 8 9 9 9 10 10 10 10 10
3 3 3 3 2 2 2 2 1 1 1 0 0 1 1 2 2 2 3 3 3 3 3 4 2 1 1 2 3 3 5 4 5 6 7 7 8 8 8 9 9 8 9
4 3 3 3 2 2 2 2 2 2 2 2 2 2 2 2 2 2 3 3 4 4 4 4 3 2 1 1 2 2 2 2 3 4 5 5 6 6 6 6 7 7 7
4 3 3 3 3 2 2 2 2 3 3 3 3 3 3 3 3 3 3 3 4 4 4 4 3 2 1 2 2 2 2 2 2 2 2 3 3 4 4 4 4 5 6
3 4 3 3 3 3 3 3 4 3 3 3 3 3 3 4 5 5 5 5 5 5 5 4 2 3 2 2 2 2 3 2 1 1 1 1 2 2 2 2 3 4 4
3 4 3 3 3 3 4 5 5 4 4 3 3 3 3 3 5 5 7 8 6 5 4 4 4 3 3 3 3 3 3 2 1 1 1 1 0 0 1 1 2 3 3
3 2 2 2 3 3 4 5 6 5 5 4 3 3 3 3 4 5 6 6 5 5 4 3 3 2 2 3 3 3 4 3 2 1 1 1 1 1 1 1 1 1 2
3 2 2 3 3 2 4 5 6 4 4 4 4 4 4 4 5 7 7 6 5 4 6 8 7 6 6 6 6 4 4 3 1 1 1 1 1 1 1 1 1 2 2
3 3 3 2 2 2 3 4 5 4 4 3 3 4 4 5 6 7 6 5 5 3 3 5 6 6 6 5 5 3 3 3 1 1 2 2 2 1 1 1 1 2 2
Wind_Direction
85 34 10 349 327 342 22 35 33 19 23 31 107 164 174 182 185 194 200 201 199 200 202 204 205 206 208 208 209 212 214 211 210 212 214 214 215 218 220 221 218 214 213
180 184 259 291 290 287 292 23 45 7 357 27 8 158 185 178 182 190 200 207 209 208 210 212 214 215 218 221 222 223 224 222 218 218 223 227 227 225 226 227 226 224 223
193 192 220 275 274 264 280 24 32 32 7 63 70 112 137 165 173 184 195 205 220 222 220 219 224 224 227 228 228 227 229 228 227 225 226 229 230 230 230 228 228 228 227
197 192 204 245 250 236 206 62 21 43 33 58 59 35 85 142 181 183 184 192 206 225 231 232 237 239 240 234 231 227 227 228 226 224 225 226 227 231 234 231 230 230 229
199 197 210 228 212 169 203 229 151 126 91 74 76 43 30 133 173 172 179 191 197 212 235 245 244 246 248 244 237 226 225 229 224 220 224 229 229 231 233 232 231 228 228
210 202 211 222 190 168 195 188 165 129 134 124 93 67 40 50 94 130 180 169 185 207 222 245 256 254 251 251 253 234 226 223 223 223 227 232 232 232 234 232 231 230 230
215 202 208 214 197 194 204 184 161 153 155 133 103 60 26 42 71 103 137 128 157 205 202 230 249 260 266 259 263 242 233 233 230 227 231 235 233 232 229 228 228 232 234
222 212 204 210 205 200 207 188 166 164 183 163 151 141 338 5 31 23 90 131 156 74 62 267 250 256 264 273 279 256 249 249 249 240 229 232 234 232 226 222 225 231 234
234 223 215 210 203 197 214 217 192 185 199 203 178 165 174 217 337 18 38 59 66 68 42 34 18 318 281 277 282 274 256 252 254 250 237 230 232 236 233 232 232 235 235
262 243 228 219 215 205 216 228 210 205 190 206 206 211 202 167 170 153 31 45 58 53 30 25 11 0 336 311 337 347 288 269 256 251 255 254 248 249 247 244 237 234 230
276 263 235 213 218 220 224 226 214 202 201 205 198 187 194 192 183 189 213 107 58 50 45 31 20 18 14 25 48 45 42 19 343 262 267 281 293 280 263 266 278 252 225
283 268 235 213 223 225 229 227 216 203 205 202 194 186 185 183 189 188 206 207 183 34 47 43 25 19 23 31 57 67 62 61 68 76 70 59 48 42 41 46 42 35 43
280 270 248 228 229 229 225 208 193 200 194 188 196 205 208 212 179 169 172 187 180 353 14 30 23 24 41 40 50 71 68 73 80 79 74 69 60 57 55 55 54 51 45
251 251 219 225 248 235 207 140 154 192 172 188 205 203 204 208 182 178 173 164 160 133 29 328 21 44 60 63 62 82 75 76 80 79 76 76 73 65 60 60 60 54 46
227 88 95 92 57 64 73 84 75 47 111 178 209 206 207 203 184 189 173 168 168 184 224 249 27 35 68 73 69 78 81 81 85 83 82 85 82 77 72 69 65 61 61
68 75 70 76 72 73 82 85 71 42 68 5 320 136 187 184 168 160 162 159 160 167 179 167 117 65 84 81 76 81 82 79 81 84 85 88 88 84 80 75 72 70 70
90 84 79 74 67 68 74 88 80 68 76 37 32 76 43 141 143 143 139 138 143 149 152 155 78 87 93 91 81 84 80 76 75 82 86 87 88 87 85 81 78 75 74
92 94 88 78 65 57 58 81 72 54 84 66 357 109 98 106 115 130 137 140 147 153 149 148 120 86 81 102 91 82 74 76 79 80 85 87 88 88 86 83 79 76 74
91 84 82 78 68 61 53 56 71 64 70 53 112 122 117 111 103 112 130 137 140 139 131 141 143 103 85 102 88 78 70 63 75 79 82 83 87 91 92 91 88 84 82
98 91 84 78 74 67 57 58 69 68 64 55 59 79 95 121 136 130 133 140 134 128 128 133 136 133 122 124 120 117 90 65 69 68 69 76 82 86 89 93 94 92 91
103 98 89 73 64 65 56 66 81 84 79 69 58 60 75 94 102 118 133 141 139 135 135 131 137 135 139 159 166 162 141 115 75 68 76 61 66 69 69 81 92 98 99
100 91 82 76 64 58 62 87 100 92 86 83 74 63 70 70 83 90 107 120 134 141 144 141 149 164 178 179 166 159 154 146 138 75 116 73 58 61 46 59 84 101 105
106 96 87 84 74 60 72 82 92 97 88 79 75 70 71 68 83 93 90 86 85 94 124 154 158 174 180 185 170 157 154 142 164 156 141 152 13 342 338 50 100 112 122
108 101 94 96 87 70 79 88 94 85 77 68 68 80 90 81 91 104 100 88 79 73 89 111 134 155 159 159 166 166 157 126 85 97 156 178 223 264 289 303 202 167 157
115 101 95 96 91 70 80 98 98 90 79 62 55 64 89 91 91 103 104 100 86 68 74 86 91 91 97 113 129 127 132 136 144 196 185 185 187 225 269 259 257 222 201
127 120 98 88 93 82 77 99 101 99 87 70 56 54 71 93 99 105 111 113 105 87 80 77 70 68 77 95 111 127 154 164 168 196 187 183 175 174 232 261 257 253 239
Height
1568 1569 1569 1569 1569 1570 1570 1570 1571 1571 1571 1572 1572 1572 1573 1573 1573 1573 1574 1574 1574 1574 1574 1575 1575 1575 1576 1576 1576 1577 1577 1578 1578 1578 1579 1579 1580 1580 1581 1581 1582 1582 1583
1569 1570 1570 1570 1570 1571 1571 1571 1571 1571 1572 1572 1572 1573 1573 1573 1573 1573 1573 1574 1574 1574 1574 1574 1575 1574 1575 1575 1575 1576 1576 1576 1577 1577 1578 1578 1578 1579 1579 1579 1580 1581 1581
1570 1570 1570 1571 1571 1571 1571 1571 1571 1571 1572 1572 1572 1572 1572 1573 1573 1573 1573 1573 1573 1573 1574 1574 1574 1574 1574 1573 1573 1574 1574 1574 1575 1575 1576 1576 1576 1576 1577 1578 1578 1579 1579
1570 1570 1570 1570 1571 1571 1571 1571 1571 1571 1571 1571 1571 1572 1572 1572 1572 1572 1572 1572 1572 1572 1572 1573 1573 1572 1572 1572 1572 1572 1572 1572 1573 1573 1573 1573 1574 1574 1575 1575 1576 1576 1577
1570 1570 1570 1570 1570 1570 1570 1571 1570 1571 1571 1571 1571 1571 1571 1571 1571 1571 1571 1571 1571 1571 1571 1571 1571 1571 1570 1570 1570 1570 1570 1570 1570 1570 1571 1571 1572 1572 1572 1573 1573 1574 1574
1569 1570 1569 1569 1569 1569 1569 1570 1569 1570 1570 1570 1570 1569 1569 1570 1570 1570 1569 1569 1569 1569 1569 1569 1569 1569 1569 1568 1568 1568 1568 1568 1568 1568 1569 1569 1569 1569 1569 1570 1570 1571 1571
1569 1569 1569 1569 1569 1568 1568 1568 1568 1568 1568 1568 1568 1568 1568 1568 1568 1568 1568 1568 1568 1568 1567 1567 1567 1567 1567 1567 1566 1566 1566 1566 1566 1566 1566 1566 1567 1567 1567 1568 1568 1568 1568
1567 1567 1567 1567 1567 1567 1567 1567 1566 1566 1566 1567 1567 1567 1567 1568 1566 1566 1566 1566 1566 1566 1566 1566 1565 1565 1565 1565 1564 1564 1564 1564 1564 1564 1564 1564 1564 1565 1565 1565 1565 1565 1565
1566 1566 1566 1566 1566 1565 1565 1565 1565 1564 1564 1565 1565 1566 1565 1565 1565 1565 1565 1565 1565 1565 1564 1564 1564 1563 1563 1563 1562 1562 1562 1562 1561 1561 1562 1562 1562 1562 1562 1562 1562 1562 1562
1564 1564 1564 1563 1563 1563 1563 1563 1563 1563 1563 1562 1563 1563 1564 1563 1563 1563 1564 1563 1563 1563 1563 1562 1562 1562 1561 1561 1560 1560 1560 1560 1559 1559 1560 1560 1560 1560 1560 1560 1560 1559 1559
1562 1562 1561 1561 1561 1561 1561 1561 1561 1561 1561 1561 1561 1561 1561 1561 1561 1561 1561 1562 1562 1562 1561 1561 1561 1560 1560 1559 1559 1559 1558 1558 1558 1558 1558 1558 1558 1557 1557 1557 1557 1556 1556
1560 1560 1559 1559 1559 1559 1559 1559 1558 1558 1558 1558 1558 1558 1558 1558 1558 1558 1558 1558 1559 1560 1560 1559 1559 1559 1558 1558 1558 1557 1557 1556 1556 1556 1556 1556 1555 1555 1555 1555 1554 1554 1553
1557 1557 1557 1557 1557 1557 1557 1557 1556 1556 1556 1556 1556 1556 1556 1556 1556 1556 1555 1555 1556 1557 1557 1557 1558 1558 1557 1557 1556 1556 1555 1555 1555 1554 1554 1554 1554 1553 1553 1553 1552 1552 1552
1555 1555 1555 1555 1555 1555 1555 1555 1554 1554 1554 1554 1554 1553 1553 1553 1553 1553 1553 1553 1553 1555 1555 1556 1556 1556 1556 1556 1555 1555 1554 1554 1554 1553 1553 1553 1552 1552 1552 1552 1551 1551 1551
1554 1553 1553 1553 1553 1553 1553 1553 1552 1552 1552 1552 1551 1551 1551 1551 1551 1551 1551 1551 1552 1552 1553 1554 1555 1555 1555 1555 1555 1555 1554 1553 1553 1553 1552 1552 1551 1551 1551 1550 1550 1550 1549
1552 1552 1551 1551 1551 1551 1550 1550 1550 1550 1550 1550 1549 1549 1549 1549 1549 1549 1549 1549 1550 1550 1550 1552 1553 1553 1554 1554 1554 1554 1554 1553 1553 1552 1552 1552 1551 1551 1550 1550 1549 1549 1549
1550 1550 1550 1550 1549 1549 1549 1549 1548 1548 1548 1548 1547 1547 1547 1547 1547 1547 1547 1547 1548 1548 1548 1550 1551 1552 1553 1553 1554 1554 1553 1553 1552 1552 1552 1551 1551 1550 1549 1549 1549 1549 1548
1549 1549 1549 1548 1548 1548 1548 1548 1547 1547 1546 1546 1545 1545 1545 1545 1544 1545 1545 1546 1546 1547 1547 1548 1549 1550 1551 1552 1552 1553 1553 1552 1552 1552 1551 1551 1550 1550 1549 1549 1549 1549 1548
1548 1548 1548 1547 1547 1547 1547 1547 1546 1546 1545 1544 1544 1543 1543 1543 1543 1543 1544 1544 1545 1545 1546 1547 1547 1549 1550 1551 1551 1551 1551 1551 1551 1551 1551 1550 1550 1550 1550 1549 1549 1549 1549
1547 1547 1547 1547 1546 1546 1546 1546 1545 1544 1544 1543 1543 1543 1542 1542 1542 1542 1543 1543 1543 1544 1545 1546 1546 1547 1548 1549 1549 1550 1550 1550 1550 1551 1550 1550 1550 1550 1549 1549 1549 1549 1549
1546 1546 1546 1546 1546 1545 1545 1545 1544 1544 1543 1543 1542 1542 1542 1542 1542 1542 1542 1542 1542 1543 1544 1544 1545 1546 1546 1547 1547 1548 1548 1549 1549 1550 1550 1550 1550 1549 1549 1549 1549 1549 1549
1546 1546 1546 1545 1545 1545 1545 1545 1544 1543 1543 1542 1542 1542 1542 1542 1541 1542 1542 1542 1543 1543 1543 1544 1544 1544 1545 1545 1546 1546 1547 1547 1548 1549 1549 1549 1549 1549 1549 1549 1549 1549 1549
1545 1545 1545 1545 1545 1545 1544 1544 1544 1543 1543 1542 1542 1542 1542 1541 1541 1541 1542 1542 1542 1543 1543 1544 1543 1543 1544 1544 1545 1545 1546 1546 1547 1548 1549 1548 1549 1549 1549 1549 1549 1549 1548
1545 1545 1545 1545 1544 1544 1544 1544 1544 1543 1542 1542 1542 1542 1542 1542 1542 1542 1542 1542 1542 1542 1543 1543 1543 1543 1544 1544 1544 1545 1546 1546 1547 1547 1548 1548 1548 1548 1548 1548 1548 1548 1548
1545 1545 1545 1545 1544 1544 1544 1544 1544 1543 1543 1542 1542 1542 1542 1542 1542 1542 1542 1542 1542 1542 1543 1543 1543 1544 1544 1544 1544 1545 1545 1545 1545 1545 1546 1546 1546 1547 1547 1547 1547 1547 1547
1544 1544 1545 1545 1544 1544 1544 1544 1544 1544 1543 1543 1543 1543 1543 1543 1543 1543 1543 1543 1542 1543 1543 1543 1543 1544 1544 1544 1544 1544 1544 1544 1544 1544 1544 1545 1545 1545 1545 1546 1546 1545 1545